Terminal Aerodrome Forecast
Issued by NWS

Home | Current Version | Previous Version | Text Only | Print | Product List | Glossary On
Versions: 1 2 3 4 5 6 7 8 9 10 11 12
597
FTUS41 KPHI 272320
TAFMIV
TAF
KMIV 272320Z 2800/2824 VRB05KT P6SM SCT250
     FM281000 21004KT 6SM BR SCT250
     FM281400 21006KT P6SM SCT050=

USA.gov is the U.S. government's official web portal to all federal, state and local government web resources and services.